FALCON 9 DEB (44295 NORAD) Tracking and Keplerian Element Data

This shows tracking and keplerian element data for the satellite.

Feedback or suggestion? Click here.




ElementValue
Catalog44295
NameFALCON 9 DEB
Epoch Orbit1424
Epoch Day228.40349056
Epoch Year2019
RAAN134.9861
Inclination53.0029
Eccentricity0.0010189
Argument of Perigee157.552
Mean Anonmoly202.5932
Mean Motion15.42456453
Decay Rate7.01E-06
L11 44295U 19029BN 19228.40349056 .00000701 00000-0 25478-4 0 9996
L22 44295 53.0029 134.9861 0010189 157.5520 202.5932 15.42456453 14244

Live tracking and technical data element details for FALCON 9 DEB (NORAD 44295). FALCON 9 DEB can be tracked NOW for your location showing map with azimuth and elevation plus other details from your city location.

Track the satellite on the map from your city or location and see movement details for azimuth, elevation, latitude, longitude, range, height, and movement on the map or in text.







IsCatalogInMostPopularTable: catalog: 44295, numindb: 25
Update: records affected: 1



GetName: 44295 FALCON 9 DEB

Hit Count: updated at: Tue, 20 Aug 2019 19:23:17 GMT